Minneapolis, MN

10:30 AM CDT on April 27, 2017 (GMT -0500)
Minneapolis-Saint Paul International

Weather History for KMSP - February, 2014

Change the Weather History Date:

Friday, February 28, 2014

  Actual Average Record
Temperature  
Mean Temperature 3 °F 26 °F  
Max Temperature 14 °F 34 °F 57 °F (1932)
Min Temperature -9 °F 18 °F -26 °F (1962)
Degree Days  
Heating Degree Days 62 39  
Month to date heating degree days 1568 1237  
Since 1 July heating degree days 6453 5790  
Cooling Degree Days 0 0  
Month to date cooling degree days 0 0  
Year to date cooling degree days 0 0  
Moisture  
Dew Point -3 °F    
Average Humidity 70    
Maximum Humidity 83    
Minimum Humidity 57    
Precipitation  
Precipitation 0.04 in 0.04 in 0.70 in (2012)
Month to date precipitation 1.41 0.77  
Year to date precipitation 2.83 1.67  
Snow  
Snow 0.90 in 0.30 in 8.00 in (1907)
Month to date snowfall 18.4 7.7  
Since 1 July snowfall 58.1 41.7  
Snow Depth 20.00 in    
Sea Level Pressure  
Sea Level Pressure 30.02 in    
Wind  
Wind Speed 8 mph (SSE)    
Max Wind Speed 17 mph    
Max Gust Speed 22 mph    
Visibility 8 miles    
Events Snow    
T = Trace of Precipitation, MM = Missing Value Source: NWS Daily Summary

Daily Weather History Graph

Daily Weather History Graph

Search for Another Location

Airport or City:

Trip Planner

Search our weather history database for the weather conditions in past years. The results will help you decide how hot, cold, wet, or windy it might be!

Date:

Astronomy

Feb. 28, 2014 Rise Set
Actual Time 6:52 AM CST 5:59 PM CST
Civil Twilight 6:22 AM CST 6:28 PM CST
Nautical Twilight 5:49 AM CST 7:02 PM CST
Astronomical Twilight 5:15 AM CST 7:36 PM CST
Moon 6:07 AM CST (2/28) 5:37 PM CST (2/28)
Length of Visible Light 12h 05m
Length of Day
11h 06m
Waning Crescent, 1% of the Moon is Illuminated
Feb 28
Waning Crescent
Mar 1
New
Mar 8
First Quarter
Mar 16
Full
Mar 23
Last Quarter

Hourly Weather History & Observations

Time (CST) Temp. Windchill Dew Point Humidity Pressure Visibility Wind Dir Wind Speed Gust Speed Precip Events Conditions
12:53 AM -7.1 °F -19.9 °F -17.0 °F 62% 30.14 in 10.0 mi SE 5.8 mph - N/A   Overcast
1:53 AM -6.0 °F -21.5 °F -17.0 °F 59% 30.12 in 10.0 mi SE 8.1 mph - N/A   Overcast
2:53 AM -7.1 °F -19.9 °F -18.0 °F 59% 30.09 in 10.0 mi SE 5.8 mph - N/A   Scattered Clouds
3:53 AM -8.0 °F -22.5 °F -18.9 °F 59% 30.07 in 10.0 mi ESE 6.9 mph - N/A   Scattered Clouds
4:53 AM -9.0 °F -23.8 °F -18.9 °F 62% 30.06 in 10.0 mi ESE 6.9 mph - N/A   Partly Cloudy
5:53 AM -8.0 °F -21.0 °F -18.0 °F 61% 30.03 in 10.0 mi SE 5.8 mph - N/A   Mostly Cloudy
6:53 AM -5.1 °F -20.4 °F -16.1 °F 59% 30.02 in 10.0 mi SE 8.1 mph - N/A   Overcast
7:53 AM -2.9 °F -18.8 °F -13.0 °F 62% 30.01 in 10.0 mi SE 9.2 mph - N/A   Overcast
8:53 AM -0.0 °F -15.3 °F -9.9 °F 63% 30.00 in 10.0 mi ESE 9.2 mph - N/A   Overcast
9:53 AM 1.9 °F -13.8 °F -8.0 °F 63% 29.99 in 10.0 mi SE 10.4 mph - N/A   Overcast
10:53 AM 3.9 °F -11.3 °F -6.0 °F 64% 29.98 in 10.0 mi SE 10.4 mph - N/A   Overcast
11:20 AM 5.0 °F -9.1 °F -4.0 °F 66% 29.90 in 2.0 mi SSE 9.2 mph - 0.00 in Snow Light Snow
11:24 AM 6.8 °F -5.9 °F -2.2 °F 67% 29.90 in 1.2 mi SSE 8.1 mph - 0.00 in Snow Light Snow
11:33 AM 6.8 °F -5.9 °F -0.4 °F 72% 29.90 in 0.5 mi SSE 8.1 mph - 0.00 in Snow Light Snow
11:53 AM 6.1 °F -6.8 °F 1.0 °F 80% 29.98 in 1.2 mi SSE 8.1 mph - 0.01 in Snow Light Snow
12:11 PM 6.8 °F -3.5 °F 3.2 °F 85% 29.90 in 0.8 mi SE 5.8 mph - 0.01 in Snow Light Snow
12:32 PM 8.6 °F 0.1 °F 5.0 °F 85% 29.90 in 1.2 mi SSE 4.6 mph - 0.02 in Snow Light Snow
12:38 PM 8.6 °F -1.3 °F 5.0 °F 85% 29.91 in 4.0 mi South 5.8 mph - 0.02 in Snow Light Snow
12:51 PM 8.6 °F -1.3 °F 5.0 °F 85% 29.90 in 8.0 mi South 5.8 mph - 0.03 in Snow Light Snow
12:53 PM 9.0 °F 0.6 °F 5.0 °F 84% 29.97 in 8.0 mi South 4.6 mph - 0.03 in Snow Light Snow
1:53 PM 10.9 °F -0.8 °F 5.0 °F 77% 29.96 in 10.0 mi South 8.1 mph - 0.00 in   Overcast
2:53 PM 12.9 °F -0.2 °F 6.1 °F 74% 29.97 in 10.0 mi WSW 10.4 mph - 0.00 in   Overcast
3:22 PM 12.2 °F 0.7 °F 6.8 °F 79% 29.91 in 10.0 mi WSW 8.1 mph - N/A   Overcast
3:53 PM 14.0 °F 5.1 °F 7.0 °F 74% 29.99 in 10.0 mi WSW 5.8 mph - N/A   Overcast
4:53 PM 14.0 °F 3.9 °F 6.1 °F 71% 30.01 in 10.0 mi WNW 6.9 mph - N/A   Overcast
5:53 PM 14.0 °F 3.9 °F 6.1 °F 71% 30.04 in 10.0 mi WNW 6.9 mph - 0.00 in Snow Light Snow
6:53 PM 12.9 °F 1.6 °F 6.1 °F 74% 30.06 in 10.0 mi NW 8.1 mph - 0.00 in   Overcast
7:53 PM 12.0 °F 2.7 °F 5.0 °F 73% 30.09 in 10.0 mi NW 5.8 mph - N/A   Overcast
8:53 PM 12.0 °F 1.5 °F 5.0 °F 73% 30.11 in 10.0 mi NW 6.9 mph - N/A   Overcast
9:53 PM 12.0 °F -2.0 °F 3.9 °F 70% 30.14 in 8.0 mi NW 11.5 mph - N/A   Overcast
10:53 PM 10.0 °F -5.9 °F 1.0 °F 67% 30.19 in 10.0 mi NW 13.8 mph 21.9 mph N/A   Overcast
11:53 PM 8.1 °F -7.0 °F -0.9 °F 67% 30.23 in 10.0 mi NW 11.5 mph - N/A   Mostly Cloudy